AAL3179 KJFK-KCLT

Flight info

Callsign AAL3179
Flight time N/A
Altitude 36000
Route RBV Q430 COPES Q75 GVE AIROW CHSLY6
Aircraft B738/M-SDE2E3FGHIRWXY/LB1

Departure

Time N/A
Airport John F. Kennedy International Airport (KJFK)

Arrival

Time 2026-05-05 23:35
Airport Charlotte Douglas International Airport (KCLT)
Time Latitude Longitude Altitude Speed Heading
2026-05-05 23:17 36.26924 -80.06136 22585 ft 396 kts 218°
2026-05-05 23:17 36.24675 -80.07985 22489 ft 380 kts 218°
2026-05-05 23:17 36.22519 -80.09754 22469 ft 364 kts 218°
2026-05-05 23:17 36.20454 -80.11449 22447 ft 349 kts 218°
2026-05-05 23:18 36.18467 -80.13082 22229 ft 340 kts 219°
2026-05-05 23:18 36.16468 -80.14733 21235 ft 353 kts 218°
2026-05-05 23:18 36.14382 -80.16459 20329 ft 365 kts 218°
2026-05-05 23:18 36.12260 -80.18206 19774 ft 365 kts 218°
2026-05-05 23:19 36.10152 -80.19933 19353 ft 361 kts 218°
2026-05-05 23:19 36.08071 -80.21637 18921 ft 357 kts 218°
2026-05-05 23:19 36.06007 -80.23328 18463 ft 355 kts 218°
2026-05-05 23:19 36.03954 -80.25010 17961 ft 353 kts 218°
2026-05-05 23:20 36.01915 -80.26679 17475 ft 350 kts 218°
2026-05-05 23:20 35.99918 -80.28312 17027 ft 347 kts 218°
2026-05-05 23:20 35.97930 -80.29935 16807 ft 337 kts 218°
2026-05-05 23:20 35.95993 -80.31516 16495 ft 331 kts 218°
2026-05-05 23:21 35.94084 -80.33077 16053 ft 329 kts 218°
2026-05-05 23:21 35.92174 -80.34639 15618 ft 328 kts 218°
2026-05-05 23:21 35.90274 -80.36189 15204 ft 326 kts 218°
2026-05-05 23:21 35.88388 -80.37727 14811 ft 324 kts 218°
2026-05-05 23:22 35.86517 -80.39251 14403 ft 321 kts 217°
2026-05-05 23:22 35.84687 -80.40732 14328 ft 308 kts 217°
2026-05-05 23:22 35.82936 -80.42160 14159 ft 298 kts 219°
2026-05-05 23:22 35.81283 -80.43711 13699 ft 299 kts 222°
2026-05-05 23:23 35.79663 -80.45317 13245 ft 299 kts 222°
2026-05-05 23:23 35.78055 -80.46899 12793 ft 300 kts 222°
2026-05-05 23:23 35.76415 -80.48494 12337 ft 300 kts 221°
2026-05-05 23:23 35.74727 -80.50013 11887 ft 303 kts 212°
2026-05-05 23:24 35.72749 -80.50968 11452 ft 307 kts 201°
2026-05-05 23:24 35.70782 -80.51919 11002 ft 302 kts 216°
2026-05-05 23:24 35.69263 -80.53628 10722 ft 292 kts 231°
2026-05-05 23:24 35.67986 -80.55533 10471 ft 285 kts 233°
2026-05-05 23:25 35.66769 -80.57429 10231 ft 280 kts 233°
2026-05-05 23:25 35.65583 -80.59291 10007 ft 275 kts 233°
2026-05-05 23:25 35.64418 -80.61132 9744 ft 270 kts 233°
2026-05-05 23:25 35.63279 -80.62943 9479 ft 266 kts 233°
2026-05-05 23:26 35.62157 -80.64739 9193 ft 265 kts 233°
2026-05-05 23:26 35.61043 -80.66546 8859 ft 265 kts 233°
2026-05-05 23:26 35.59941 -80.68357 8532 ft 265 kts 233°
2026-05-05 23:26 35.58846 -80.70181 8205 ft 265 kts 233°
2026-05-05 23:27 35.57763 -80.72007 7882 ft 264 kts 233°
2026-05-05 23:27 35.56697 -80.73839 7593 ft 263 kts 233°
2026-05-05 23:27 35.55637 -80.75679 7275 ft 263 kts 233°
2026-05-05 23:27 35.54595 -80.77509 6981 ft 260 kts 233°
2026-05-05 23:28 35.53585 -80.79306 6703 ft 258 kts 234°
2026-05-05 23:28 35.52578 -80.81121 6413 ft 256 kts 233°
2026-05-05 23:28 35.51586 -80.82937 6109 ft 255 kts 234°
2026-05-05 23:28 35.50606 -80.84738 5810 ft 253 kts 233°
2026-05-05 23:29 35.49635 -80.86532 5520 ft 251 kts 234°
2026-05-05 23:29 35.48679 -80.88302 5208 ft 246 kts 234°
2026-05-05 23:29 35.47745 -80.90032 4916 ft 242 kts 233°
2026-05-05 23:29 35.46633 -80.91545 4653 ft 236 kts 219°
2026-05-05 23:30 35.45368 -80.92778 4347 ft 229 kts 216°
2026-05-05 23:30 35.44125 -80.93954 4079 ft 220 kts 214°
2026-05-05 23:30 35.42807 -80.94787 4024 ft 211 kts 197°
2026-05-05 23:30 35.41371 -80.95099 3965 ft 208 kts 187°
2026-05-05 23:31 35.39972 -80.95171 3974 ft 200 kts 180°
2026-05-05 23:31 35.38588 -80.95101 3859 ft 199 kts 177°
2026-05-05 23:31 35.37209 -80.94916 3683 ft 199 kts 175°
2026-05-05 23:31 35.35842 -80.94677 3520 ft 197 kts 173°
2026-05-05 23:32 35.34483 -80.94410 3259 ft 199 kts 172°
2026-05-05 23:32 35.33156 -80.94205 3088 ft 186 kts 178°
2026-05-05 23:32 35.31877 -80.94143 2825 ft 183 kts 183°
2026-05-05 23:32 35.30616 -80.94173 2517 ft 179 kts 182°
2026-05-05 23:33 35.29406 -80.94156 2197 ft 170 kts 180°
2026-05-05 23:33 35.28253 -80.94068 1933 ft 159 kts 179°
2026-05-05 23:33 35.27196 -80.94001 1772 ft 146 kts 179°
2026-05-05 23:33 35.26247 -80.93923 1613 ft 130 kts 180°
2026-05-05 23:34 35.25370 -80.93852 1398 ft 124 kts 179°
2026-05-05 23:34 35.24472 -80.93779 1227 ft 136 kts 178°
2026-05-05 23:34 35.23497 -80.93688 1034 ft 141 kts 181°
2026-05-05 23:34 35.22522 -80.93613 804 ft 139 kts 179°
2026-05-05 23:35 35.21605 -80.93538 736 ft 122 kts 179°
2026-05-05 23:35 35.20917 -80.93485 733 ft 57 kts 176°
2026-05-05 23:35 35.20778 -80.93507 733 ft 14 kts 245°
2026-05-05 23:35 35.20797 -80.93607 732 ft 13 kts 346°
2026-05-05 23:36 35.20887 -80.93618 732 ft 13 kts 355°
2026-05-05 23:36 35.20998 -80.93627 732 ft 20 kts 357°
2026-05-05 23:36 35.21151 -80.93639 732 ft 23 kts 356°
2026-05-05 23:36 35.21304 -80.93651 732 ft 22 kts 356°
2026-05-05 23:37 35.21457 -80.93665 732 ft 21 kts 356°
2026-05-05 23:37 35.21582 -80.93703 732 ft 18 kts 315°
2026-05-05 23:37 35.21662 -80.93817 732 ft 17 kts 309°
2026-05-05 23:37 35.21745 -80.93920 731 ft 17 kts 319°
2026-05-05 23:38 35.21795 -80.93995 731 ft 11 kts 272°
2026-05-05 23:38 35.21755 -80.94083 730 ft 14 kts 230°
2026-05-05 23:38 35.21688 -80.94175 731 ft 14 kts 228°
2026-05-05 23:38 35.21670 -80.94288 731 ft 14 kts 277°
2026-05-05 23:39 35.21716 -80.94376 731 ft 13 kts 350°
2026-05-05 23:39 35.21806 -80.94387 731 ft 13 kts 354°
2026-05-05 23:39 35.21877 -80.94393 730 ft 1 kts 355°
2026-05-05 23:39 35.21897 -80.94394 731 ft 7 kts 358°
2026-05-05 23:40 35.21934 -80.94421 731 ft 7 kts 301°
2026-05-05 23:40 35.21948 -80.94451 730 ft 1 kts 300°
2026-05-05 23:40 35.21949 -80.94452 730 ft 0 kts 300°